Erie, PA

3:28 PM EST on November 13, 2019 (GMT -0500)
Erie International

Weather History for KERI - September, 2019

Change the Weather History Date:

Tuesday, September 3, 2019

  Actual Average Record
Temperature  
Mean Temperature 72 °F 68 °F  
Max Temperature 82 °F 76 °F 99 °F (1953)
Min Temperature 62 °F 60 °F 47 °F (1946)
Degree Days  
Heating Degree Days 0 1  
Month to date heating degree days 0 3  
Since 1 July heating degree days 1 21  
Cooling Degree Days 8 4  
Month to date cooling degree days 19 12  
Year to date cooling degree days 709 570  
Growing Degree Days 22 (Base 50)    
Moisture  
Dew Point 60 °F    
Average Humidity 68    
Maximum Humidity 90    
Minimum Humidity 47    
Precipitation  
Precipitation T in 0.13 in 2.26 in (1933)
Month to date precipitation 1.25 0.39  
Year to date precipitation 27.57 26.22  
Snow  
Snow 0.00 in 0.00 in - ()
Month to date snowfall 0.0 0.0  
Since 1 July snowfall 0.0 0.0  
Since 1 September snowfall 0.0 0.0  
Snow Depth 0.00 in    
Sea Level Pressure  
Sea Level Pressure 29.98 in    
Wind  
Wind Speed 6 mph ()    
Max Wind Speed 23 mph    
Max Gust Speed 33 mph    
Visibility 10.0 miles    
Events      
T = Trace of Precipitation, MM = Missing Value Source: Averaged Metar Reports

Daily Weather History Graph

Daily Weather History Graph

Search for Another Location

Airport or City:

Astronomy

Sep. 03, 2019 Rise Set
Actual Time 6:48 AM EDT 7:51 PM EDT
Civil Twilight 6:19 AM EDT 8:19 PM EDT
Nautical Twilight 5:45 AM EDT 8:54 PM EDT
Astronomical Twilight 5:09 AM EDT 9:29 PM EDT
Moon 11:44 AM EDT (9/3) 10:42 PM EDT (9/3)
Length of Visible Light 14h 00m
Length of Day
13h 03m
Waxing Crescent, 24% of the Moon is Illuminated
Sep 3
Waxing Crescent
Sep 5
First Quarter
Sep 14
Full
Sep 21
Last Quarter
Sep 28
New

Hourly Weather History & Observations

Time (EDT) Temp. Heat Index Dew Point Humidity Pressure Visibility Wind Dir Wind Speed Gust Speed Precip Events Conditions
12:51 AM 68.0 °F - 61.0 °F 78% 30.05 in 10.0 mi South 3.5 mph - N/A   Overcast
1:51 AM 66.9 °F - 60.1 °F 79% 30.05 in 10.0 mi South 4.6 mph - N/A   Overcast
2:51 AM 66.9 °F - 60.1 °F 79% 30.04 in 10.0 mi SSW 5.8 mph - 0.00 in   Overcast
3:51 AM 64.0 °F - 60.1 °F 87% 30.04 in 10.0 mi Calm Calm - N/A   Partly Cloudy
4:11 AM 64.0 °F - 60.1 °F 87% 30.04 in 10.0 mi South 4.6 mph - N/A   Mostly Cloudy
4:29 AM 64.9 °F - 60.1 °F 84% 30.04 in 10.0 mi Calm Calm - N/A   Overcast
4:51 AM 64.9 °F - 59.0 °F 81% 30.04 in 10.0 mi South 4.6 mph - N/A   Overcast
5:01 AM 64.9 °F - 59.0 °F 81% 30.04 in 10.0 mi Calm Calm - N/A   Mostly Cloudy
5:51 AM 63.0 °F - 59.0 °F 87% 30.06 in 10.0 mi South 3.5 mph - N/A   Scattered Clouds
6:51 AM 63.0 °F - 57.9 °F 84% 30.06 in 10.0 mi SSW 3.5 mph - N/A   Clear
7:51 AM 64.0 °F - 59.0 °F 84% 30.06 in 10.0 mi South 5.8 mph - N/A   Scattered Clouds
7:58 AM 64.9 °F - 59.0 °F 81% 30.06 in 10.0 mi South 5.8 mph - N/A   Mostly Cloudy
8:34 AM 66.9 °F - 60.1 °F 79% 30.06 in 10.0 mi South 5.8 mph - N/A   Scattered Clouds
8:51 AM 68.0 °F - 60.1 °F 76% 30.05 in 10.0 mi South 4.6 mph - N/A   Clear
9:51 AM 73.0 °F - 61.0 °F 66% 30.04 in 10.0 mi South 5.8 mph - N/A   Clear
10:51 AM 75.0 °F - 61.0 °F 62% 30.03 in 10.0 mi South 6.9 mph - N/A   Clear
11:51 AM 77.0 °F - 60.1 °F 56% 30.02 in 10.0 mi WSW 6.9 mph - N/A   Partly Cloudy
12:51 PM 80.1 °F 80.9 °F 60.1 °F 50% 29.99 in 10.0 mi WSW 9.2 mph - N/A   Clear
1:51 PM 82.0 °F 82.4 °F 60.1 °F 47% 29.96 in 10.0 mi SW 10.4 mph - N/A   Clear
2:51 PM 81.0 °F 81.6 °F 60.1 °F 49% 29.92 in 10.0 mi South 12.7 mph - N/A   Clear
3:51 PM 82.0 °F 82.7 °F 61.0 °F 49% 29.91 in 10.0 mi SSW 11.5 mph - N/A   Clear
4:51 PM 80.1 °F 81.2 °F 62.1 °F 54% 29.86 in 10.0 mi South 12.7 mph - N/A   Partly Cloudy
5:51 PM 82.0 °F 83.0 °F 62.1 °F 51% 29.85 in 10.0 mi SSW 12.7 mph - N/A   Clear
6:51 PM 80.1 °F 81.2 °F 62.1 °F 54% 29.86 in 10.0 mi SSW 8.1 mph - N/A   Clear
7:51 PM 78.1 °F - 62.1 °F 58% 29.88 in 10.0 mi South 9.2 mph - N/A   Clear
8:51 PM 75.9 °F - 62.1 °F 62% 29.87 in 10.0 mi South 11.5 mph - N/A   Partly Cloudy
9:51 PM 75.9 °F - 61.0 °F 60% 29.86 in 10.0 mi South 16.1 mph - N/A   Mostly Cloudy
10:51 PM 77.0 °F - 62.1 °F 60% 29.83 in 10.0 mi South 17.3 mph - N/A   Mostly Cloudy
11:51 PM 77.0 °F - 62.1 °F 60% 29.81 in 10.0 mi South 20.7 mph 26.5 mph N/A   Overcast